Location: Newark
(27.9675°N, 86.8869°E)
Time: 21:52:41
(UTC+00:00)

Vanguard 3 - Pass Details

Date: 31 October 2019
Orbit: 508 x 3263 km, 33.3° (Epoch: 12 November)

Event Time Altitude Azimuth Distance (km) Brightness Sun altitude
Rises 16:38:36 0° 282° (WNW) 3,925 - -67.3°
Reaches altitude 10° 16:42:01 10° 288° (WNW) 2,578 - -67.9°
Maximum altitude 16:47:26 44° 1° (N) 896 - -68.9°
Drops below altitude 10° 16:51:12 10° 75° (ENE) 1,805 - -69.6°
Sets 16:53:14 0° 83° (E) 2,620 - -69.9°
